Regional Weather Roundup
Issued by NWS Pendleton, OR

Home | Current Version | Previous Version | Text Only | Print | Product List | Glossary On
Versions: 1 2 3 4 5 6 7 8 9 10 11 12 13 14 15 16 17 18 19 20 21 22 23 24 25 26 27 28 29 30 31 32 33 34 35 36 37 38 39 40 41 42 43 44 45 46 47 48 49 50
000
ASUS46 KPDT 170125
RWRPDT
PENDLETON REGIONAL WEATHER ROUNDUP
NATIONAL WEATHER SERVICE PENDLETON OREGON
500 PM PST TUE JAN 16 2018

NOTE: FAIR INDICATES FEW OR NO CLOUDS BELOW 12,000 FEET WITH NO
SIGNIFICANT WEATHER AND/OR OBSTRUCTIONS TO VISIBILITY.

# INDICATES UNOFFICIAL STATION AND DATA

WAZ520-170210-
EAST SLOPES OF WASHINGTON CASCADES

CITY            SKY/WX      TMP DP  RH  WIND    PRES   REMARKS
#BULLFROG       N/A         37  37  100 CALM    N/A
#CLE ELUM HS    N/A         39  36  89  CALM    30.21R
#EASTON DOT     N/A         35  34  96  CALM    N/A
#ELK HTS DOT    N/A         38  38  100 SE1     N/A
#GLENWOOD       N/A         40  37  89  CALM    30.30F
#NELSON 3SW     N/A         33  32  96  CALM    30.53S
#NILE           N/A         37  36  96  CALM    29.59S
#TEANAWAY 4NE   N/A         37  37  100 CALM    N/A
#TROUT LAKE 1NE N/A         39  38  96  CALM    30.31S
#TROUT LAKE 1E  N/A         40  39  96  CALM    30.28F
$$

WAZ521-170210-
SIMCOE HIGHLANDS

CITY            SKY/WX      TMP DP  RH  WIND    PRES   REMARKS
#BICKLETON HS   N/A         36  32  85  NW8     29.88F
#CENTERVILLE 1SWN/A         40  37  89  CALM    30.27F
#GOLDENDALE 1NE N/A         44  28  53  E5      N/A
#GOLDENDALE 4W  N/A         41  32  70  CALM    30.29F
#LYLE 6NE       N/A         42  40  93  CALM    30.32F
#PITT 4SE       N/A         38  37  96  CALM    30.34F
$$

WAZ026-170210-
KITTITAS VALLEY

CITY            SKY/WX      TMP DP  RH  WIND    PRES   REMARKS
ELLENSBURG AP   CLOUDY      41  36  82  E6      30.29R
#ELLENSBURG CWU N/A         40  36  85  CALM    30.28R
#ELLENSBURG 3NE N/A         39  36  89  CALM    28.35R
#ELLENSBURG 1E  N/A         40  37  89  CALM    30.39F
#KITTITAS 3S    N/A         36  32  85  CALM    30.33S
#MANASTASH RDG  N/A         36  36  100 CALM    N/A
#ROCKY CYN DOT  N/A         40  36  85  SE1     N/A
#RYEGRASS DOT   N/A         35  33  92  CALM    N/A
$$

WAZ027-170210-
YAKIMA VALLEY

CITY            SKY/WX      TMP DP  RH  WIND    PRES   REMARKS
SUNNYSIDE AP    MOCLDY      40  39  96  E6      30.30S
YAKIMA AIRPORT  MOCLDY      43  37  79  NW6     30.31R
YAKIMA-VAGABOND CLEAR       35  32  89  CALM    30.28S
#DONALD 2NE     N/A         44  27  51  NW8     29.13F
#GRANDVIEW      N/A         45  39  79  CALM    30.33S
#MABTON         N/A         44  41  89  S7      30.30R
#MOXEE 2E       N/A         38  N/A N/A CALM    30.25R
#NACHES 2SW     N/A         40  38  92  CALM    30.29R
#OUTLOOK DOT    N/A         44  44  100 CALM    30.27R
#PARKER DOT     N/A         44  38  79  S7      30.30R
#TERRACE HTS    N/A         41  37  86  CALM    30.31R
#TOPPENISH      N/A         44  42  93  CALM    30.25R
#I82 S UMTANUM RN/A         37  33  85  N1      N/A
#UNION GAP DOT  N/A         42  38  86  NW1     30.35R
#W YAKIMA       N/A         38  36  92  CALM    30.33F
#WILEY CITY 3W  N/A         41  36  82  CALM    30.26S
#ZILLAH DOT     N/A         44  42  93  SW3     N/A
$$

WAZ028-170210-
LOWER COLUMBIA BASIN...WASHINGTON

CITY            SKY/WX      TMP DP  RH  WIND    PRES   REMARKS
HANFORD         PTCLDY      38  37  96  NW10    30.31R
PASCO           PTCLDY      47  40  76  NE3     30.33R
PROSSER AWOS    N/A         45  43  93  NE6     30.33S
RICHLAND AWOS   PTCLDY      45  40  82  CALM    30.32R
#BENTON CITY    N/A         44  40  86  CALM    30.23R
#CONNELL 5N     N/A         44  42  93  CALM    30.34R
#CONNELL 5NW    N/A         43  40  89  CALM    30.29R
#ELTOPIA 6NW    N/A         46  43  89  CALM    29.27R
#KAHLOTUS       N/A         47  42  83  W7      30.33R
#KENNEWICK 3S   N/A         45  40  82  S1      30.34R
#PATERSON       N/A         46  41  83  E1      30.31S
#PROSSER DOT    N/A         47  41  79  CALM    30.31R
#SAGEMOOR 2W    N/A         45  41  86  S2      30.20R
#TOUCHET 2S     N/A         48  42  80  CALM    30.31R
#WEST PASCO     N/A         46  41  83  CALM    30.34R
$$

WAZ029-170210-
FOOTHILLS OF THE BLUES...WASHINGTON

CITY            SKY/WX      TMP DP  RH  WIND    PRES   REMARKS
#CLYDE 6NW      N/A         45  40  82  CALM    30.34R
#DELANEY DOT    N/A         44  38  79  SE1     30.34R
#LOWDEN 2SE     N/A         48  43  83  CALM    30.29R
#PLEASANT VIEW 1N/A         42  40  93  S3      30.39R
#PRESCOTT       N/A         46  41  83  CALM    30.32R
#WHITMAN COLLEGEN/A         50  42  74  CALM    30.40R
#WAITSBURG 5S   N/A         47  42  83  CALM    30.45R
#WAITSBURG 6SSE N/A         44  40  86  SE1     30.18R
#WAITSBURG 8N   N/A          0  N/A N/A CALM    30.06R
#WALLA WALLA 5E N/A         46  42  86  NE1     N/A
#WHITMAN MISSIONN/A         50  44  80  CALM    30.34R
$$

WAZ030-170210-
BLUE MOUNTAINS...WASHINGTON

CITY            SKY/WX      TMP DP  RH  WIND    PRES   REMARKS
#DIXIE 5SE      N/A         42  39  89  CALM    30.22R
$$

ORZ009-041-WAZ024-170210-
COLUMBIA RIVER GORGE

CITY            SKY/WX      TMP DP  RH  WIND    PRES   REMARKS
HOOD RIVER AP   CLOUDY      41  39  93  CALM    30.30S
THE DALLES AP   CLOUDY      42  39  89  N3      30.30F
#ARLINGTON AIRPON/A         45  41  86  S3      30.32F
#ARLINGTON HS   N/A         44  38  79  CALM    30.21F
#CELILO DOT     N/A         42  38  86  SE1     N/A
#LYLE           N/A         44  41  89  S2      30.32F
#MARYHILL       N/A         41  40  96  N2      N/A
#MURDOCK        N/A         43  40  89  CALM    30.27F
#RUFUS DOT      N/A         43  N/A N/A NW6     N/A
#SMITHVILLE     N/A         43  39  86  N2      30.25F

$$

ORZ510-170210-
NORTH CENTRAL OREGON

CITY            SKY/WX      TMP DP  RH  WIND    PRES   REMARKS
#ANTELOPE       N/A         41  36  82  N2      30.19F
#CHENOWITH 1W   N/A         39  39  100 E5      N/A
#COW CYN RST AREN/A         42  N/A N/A E3      N/A
#DUFUR          N/A         40  39  96  CALM    30.27F
#DUFUR 9E       N/A         42  39  89  E9      30.36F
#GRASS VALLEY 1SN/A         42  38  86  E1      30.24F
#KENT DOT       N/A         44  27  51  N2      N/A
#MAUPIN SCHOOL  N/A         46  41  83  CALM    30.31S
#SHANIKO 5WSW   N/A         41  N/A N/A E8      N/A
#SHANIKO 4NW    N/A         39  34  82  E7      30.23F
#TYGH VALLEY 2NEN/A         45  40  82  CALM    30.28F
#WASCO DOT      N/A         45  42  89  W3      N/A
$$

ORZ511-170210-
CENTRAL OREGON

CITY            SKY/WX      TMP DP  RH  WIND    PRES   REMARKS
BEND AIRPORT    CLOUDY      45  32  60  CALM    30.24F
PRINEVILLE AP   CLOUDY      43  34  70  E5      30.24S
REDMOND AIRPORT CLOUDY      44  34  68  E6      30.22F
#ASHWOOD SCHOOL N/A         43  39  86  CALM    30.19F
#BEND 1SW       N/A         43  35  73  CALM    N/A
#BEND-AWBREY    N/A         44  36  73  S1      30.29F
#BEND-KIM LN    N/A         42  38  86  CALM    30.24F
#CULVER         N/A         38  36  92  CALM    30.15S
#CULVER 8W      N/A         38  36  92  CALM    30.22S
#LAKE BILLY CHINN/A         40  N/A N/A N2      30.31S
#MADRAS 4S      N/A         39  32  76  CALM    30.32
#POWELL BUTTE   N/A         45  29  53  SE3     30.15F
#PRINEVILLE     N/A         42  37  82  CALM    30.37S
#PRINEVILLE 3N  N/A         42  36  79  NE3     30.27F
#WARM SPRINGS   N/A         41  38  89  CALM    30.15S

$$


ORZ509-170210-
EAST SLOPES OF OREGON CASCADES

CITY            SKY/WX      TMP DP  RH  WIND    PRES   REMARKS
SISTERS AWOS    N/A         43  37  79  CALM    30.18F
#BLUE BOX PASS  N/A         35  N/A N/A E3      N/A
#CAMP SHERMAN   N/A         40  36  85  CALM    30.35R
#LA PINE DOT    N/A         45  33  63  S2      N/A
#LA PINE 4NW    N/A         42  32  67  CALM    30.29F
#LAVA BUTTE DOT N/A         43  26  51  CALM    N/A
#SISTERS ODOT   N/A         44  36  73  CALM    N/A
#SISTERS 3N     N/A         38  36  92  CALM    30.23S
#SUNRIVER       N/A         43  34  70  CALM    30.27F
#TUMALO 3W      N/A         43  36  76  CALM    30.17F
#WANOGA BUTTE D N/A         34  30  85  W8      N/A

$$

ORZ044-170210-
LOWER COLUMBIA BASIN...OREGON

CITY            SKY/WX      TMP DP  RH  WIND    PRES   REMARKS
HERMISTON       CLOUDY      43  42  96  SE5     30.31S
#BOARDMAN SCHOOLN/A         46  42  86  N1      30.30S
#BOARDMAN 8SW   N/A         46  42  86  E3      30.32S
#ECHO 8SW       N/A         45  45  100 CALM    30.32S
#I-84 EX 198 DOTN/A         46  41  83  CALM    N/A
#IONE SCHOOL    N/A         46  28  49  CALM    30.33F
#UMATILLA       N/A         45  38  76  CALM    30.27R
$$

ORZ507-170210-
NORTHERN FOOTHILLS OF THE BLUES

CITY            SKY/WX      TMP DP  RH  WIND    PRES   REMARKS
PENDLETON AIRPT CLOUDY      41  38  89  N7      30.31R
#ADAMS 3WNW     N/A         42  40  93  CALM    30.34S
#ATHENA         N/A         46  40  79  CALM    30.38R
#CAYUSE         N/A         46  41  83  CALM    30.35R
#HELIX 3N       N/A         43  39  86  CALM    30.30R
#HOLDMAN 6E     N/A         43  42  96  CALM    30.15R
#M-F GROVE ELEM N/A         50  41  71  CALM    30.28R
#M-FREEWATER 5SEN/A         48  43  83  CALM    30.29R
#PENDLETON DNTN N/A         47  40  76  CALM    N/A
#PDT AQUATIC CTRN/A         44  39  82  N3      30.29S
#PDT SUNRIDGE   N/A         44  41  89  CALM    30.33R
#PENDLETON 6SE  N/A         45  41  86  SE1     30.31R
#PENDLETON 7NW  N/A         45  40  82  CALM    28.84S
#PILOT ROCK 1S  N/A         43  36  76  CALM    30.31R
#PILOT ROCK     N/A         44  39  82  CALM    30.31R
#TUTUILLA       N/A         43  39  86  CALM    30.36S
#UMAPINE 2E     N/A         48  42  80  NE1     30.29R

$$

ORZ508-170210-
SOUTHERN FOOTHILLS OF THE BLUES

CITY            SKY/WX      TMP DP  RH  WIND    PRES   REMARKS
LEXINGTON       CLOUDY      45  41  86  E5      30.31F
#AJAX           N/A         43  34  70  N1      30.38F
#CONDON 5W      N/A         39  35  85  W6      30.23S
#FOSSIL SCHOOL  N/A         45  40  82  CALM    30.18F
#HEPPNER EOC    N/A         44  38  79  E2      30.27F
#HEPPNER 4NE    N/A         41  35  79  SE1     30.35S
#LEXINGTON 2SE  N/A         45  39  79  CALM    30.25F
#MIKKALO        N/A         44  39  82  E1      30.37S
#OLEX 4N        N/A         45  42  89  CALM    30.25F
#RUGGS 5NE      N/A         40  36  85  E2      30.46S
#RUGGS 2SW      N/A         41  37  86  CALM    30.37S

$$

ORZ502-503-170210-
BLUE MOUNTAINS

CITY            SKY/WX      TMP DP  RH  WIND    PRES   REMARKS
MEACHAM         CLOUDY      36  34  92  CALM    30.29R
#BATTLE MTN DOT N/A         39  33  79  SE8     N/A
#GRANITE        N/A         31  23  72  CALM    29.91S
#LADD CYN SMT   N/A         37  33  85  SE8     N/A
#LADD CREEK ODOTN/A         39  30  70  W3      N/A
#LONG CREEK HS  N/A         43  38  82  S6      30.30R
#N POWDER DOT   N/A         39  34  82  S6      N/A
#PIKES PEAK     N/A         40  37  89  CALM    27.99S
#SUMMERVILLE 5NWN/A         33  31  92  CALM    28.24R
#TOLLGATE       N/A         33  32  96  CALM    30.28R
#TROY SCHOOL    N/A         41  38  89  CALM    30.22R
#UKIAH          N/A         39  36  89  CALM    30.24R
#WESTON 4E      N/A         41  37  86  E3      30.30R
$$

ORZ505-170210-
JOHN DAY BASIN

CITY            SKY/WX      TMP DP  RH  WIND    PRES   REMARKS
JOHN DAY        CLOUDY      46  33  60  S12     30.31R WCI 40
#ANTELOPE 9ESE  N/A         45  41  86  SW5     N/A
#DAYVILLE SCHOOLN/A         49  35  58  CALM    30.22R
#MITCHELL 8NW   N/A         42  37  82  S3      30.34F
#MONUMENT HS    N/A         47  40  76  CALM    30.23R
#MT. VERNON 5SE N/A         41  34  76  S3      30.26R
#SPRAY SCHOOL   N/A         44  N/A N/A NE2     N/A
#WINLOCK        N/A         52  46  80  CALM    30.19F
$$

ORZ506-170210-
OCHOCO AND JOHN DAY HIGHLANDS

CITY            SKY/WX      TMP DP  RH  WIND    PRES   REMARKS
#HORSE RIDGE DO N/A         45  29  53  S6      N/A
#IZEE 6NW       N/A         38  34  85  CALM    N/A
#PAULINA ODOT   N/A         47  34  60  N1      N/A
#PINE MTN OBS   N/A         33  30  89  S5      N/A
#PRAIRIE CITY   N/A         41  32  70  CALM    30.44R
#SENECA         N/A         36  N/A N/A CALM    N/A
#SENECA 9NW     N/A         36  33  89  CALM    30.35S
$$

ORZ049-170210-
GRANDE RONDE VALLEY

CITY            SKY/WX      TMP DP  RH  WIND    PRES   REMARKS
LA GRANDE       MOCLDY      41  33  73  S16     30.33R WCI 33
#COVE SCHOOL    N/A         40  34  79  CALM    30.31R
#COVE 6NW       N/A         40  34  79  CALM    30.36R
#ELGIN 3N       N/A         39  30  70  CALM    30.27R
#ELGIN 1E       N/A         40  33  76  CALM    N/A
#IMBLER SCHOOL  N/A         39  34  82  CALM    30.27R
#ISLAND CITY 4N N/A         50  46  86  CALM    30.25F
#LADD CYN DOT   N/A         41  35  79  S16     N/A    WCI 33
#UNION 1S       N/A         40  35  82  SE7     30.37R
$$

ORZ050-170210-
WALLOWA COUNTY

CITY            SKY/WX      TMP DP  RH  WIND    PRES   REMARKS
JOSEPH AIRPORT  CLOUDY      32  30  92  CALM    30.33R
#ENTERPRISE HS  N/A         37  34  89  CALM    30.30R
#IMNAHA SCHOOL  N/A         48  37  65  N6      30.31R
#IMNAHA 10S     N/A         44  34  68  SW3     30.28R
#JOSEPH         N/A         34  30  85  CALM    30.46R
#JOSEPH 3N      N/A         34  30  85  CALM    30.31R
#JOSEPH 3W      N/A         30  28  92  CALM    30.11R
#LOSTINE        N/A         36  34  92  CALM    30.22S
#LOSTINE 3SE    N/A         35  33  92  CALM    30.37R
#MT HOWARD 8000 N/A         28  15  58  S3      30.23F
#PROMISE 1S     N/A         37  33  85  CALM    30.45R
#WALLOWA LAKE   N/A         32  30  92  CALM    30.32R
#WALLOWA SCHOOL N/A         34  33  96  CALM    30.27R



$$



USA.gov is the U.S. government's official web portal to all federal, state and local government web resources and services.